Regional Weather Roundup
Issued by NWS

Home | Current Version | Previous Version | Text Only | Print | Product List | Glossary Off
Versions: 1 2 3 4 5 6 7 8 9 10 11 12 13 14 15 16 17 18 19 20 21 22 23 24 25 26 27 28 29 30 31 32 33 34 35 36 37 38 39 40 41 42 43 44 45 46 47 48 49 50

000
ASUS43 KLMK 300810
RWRKY
KENTUCKY REGIONAL WEATHER ROUNDUP
NATIONAL WEATHER SERVICE LOUISVILLE KY
400 AM EDT THU MAR 30 2017

NOTE "FAIR" INDICATES FEW OR NO CLOUDS BELOW 12,000 FEET
WITH NO SIGNIFICANT WEATHER AND/OR OBSTRUCTIONS TO VISIBILITY.

KYZ001>023-026-027-061>063-070>075-300900-
WESTERN AND SOUTH CENTRAL KENTUCKY

CITY           SKY/WX    TMP DP  RH WIND       PRES   REMARKS
PADUCAH        CLOUDY    72  55  55 S6        29.72F
HENDERSON      CLOUDY    61  52  72 E12       29.75F
OWENSBORO      PTCLDY    61  53  75 SE12      29.79F
HOPKINSVILLE   PTCLDY    69  59  70 SE7       29.78F
BOWLING GREEN  CLOUDY    61  55  81 E3        29.84F
GLASGOW        CLOUDY    61  53  76 CALM      29.86F
$$

KYZ024-025-028>034-038-045-046-053-300900-
NORTH CENTRAL KENTUCKY

CITY           SKY/WX    TMP DP  RH WIND       PRES   REMARKS
LOUISVILLE/SDF CLOUDY    56  45  66 E6        29.86F
LOUISVILLE/LOU CLOUDY    56  46  69 SE5       29.87F
FORT KNOX      MOCLDY    55  48  77 E7        29.84F
$$

KYZ035>037-039>044-047>052-055>060-089>105-300900-
NORTHEAST KENTUCKY

CITY           SKY/WX    TMP DP  RH WIND       PRES   REMARKS
LEXINGTON      CLOUDY    53  45  74 SE13      29.90F
COVINGTON      CLOUDY    53  44  71 E10       29.90F
FRANKFORT      PTCLDY    53  44  71 E8        29.87F
$$

KYZ054-064>069-076>088-106>120-300900-
SOUTHEAST KENTUCKY

CITY           SKY/WX    TMP DP  RH WIND       PRES   REMARKS
JACKSON        CLOUDY    50  45  83 E3        29.94F
LONDON         PTCLDY    54  46  74 CALM      29.92F
SOMERSET       CLOUDY    55  46  71 E5        29.91F
MIDDLESBORO    PTCLDY    51  50  96 CALM      29.96S
MONTICELLO     CLOUDY    56  52  86 W9        29.91F
$$




USA.gov is the U.S. government's official web portal to all federal, state and local government web resources and services.